Regional Weather Roundup
Issued by NWS

Home | Current Version | Previous Version | Graphics & Text | Print | Product List | Glossary On
Versions: 1 2 3 4 5 6 7 8 9 10 11 12 13 14 15 16 17 18 19 20 21 22 23 24 25 26 27 28 29 30 31 32 33 34 35 36 37 38 39 40 41 42 43 44 45 46 47 48 49
000
ASUS43 KDMX 290507
RWRIA

WEATHER ROUNDUP FOR IOWA
NATIONAL WEATHER SERVICE DES MOINES IA
1100 PM CST SUN DEC 28 2014

NOTE: "FAIR" INDICATES FEW OR NO CLOUDS BELOW 12,000 FEET WITH NO
SIGNIFICANT WEATHER AND/OR OBSTRUCTIONS TO VISIBILITY.

* - THESE STATIONS ARE NOT NWS STATIONS...THUS NOT UNDER NWS
QUALITY CONTROL.  THEY ALSO DO NOT REPORT WEATHER SUCH
AS PRECIPITATION OR FOG.

IAZ001>003-012>014-020>022-031>034-043>046-290600-
   NORTHWEST IOWA

CITY           SKY/WX    TMP DP  RH WIND       PRES   REMARKS
CARROLL *      CLOUDY    21  19  93 NE13      30.23R WCI   9
CHEROKEE *     LGT SNOW  19  18  93 NE9       30.26R WCI   9
DENISON *      CLOUDY    21  19  93 NE12      30.19S WCI   9
LE MARS *      LGT SNOW  19  18  93 NE12      30.27R WCI   7
ORANGE CITY *  LGT SNOW  19  18  93 NE8       30.25R WCI   9
SHELDON *      CLOUDY    19  19 100 NE13      30.26R WCI   7
SIOUX CITY     CLOUDY    23  18  81 NE12      30.26R WCI  12
SPENCER        CLOUDY    19  16  88 NE13      30.27R WCI   6
STORM LAKE *   MOCLDY    18  16  93 NE16      30.25R FOG     WCI   3
$$

IAZ055>058-069>071-079>083-090>094-290600-
   SOUTHWEST IOWA

CITY           SKY/WX    TMP DP  RH WIND       PRES   REMARKS
ATLANTIC *     CLOUDY    27  25  93 NE10      30.19S WCI  17
AUDUBON *      MOCLDY    25  18  74 NE9       30.21R WCI  15
CLARINDA *     CLOUDY    30  28  93 N3        30.20S
COUNCIL BLFS * CLOUDY    27  27 100 NE7       30.18R WCI  19
CRESTON *      CLOUDY    28  27  93 NE8       30.19S WCI  20
HARLAN  *      MOCLDY    25  25 100 NE7       30.24R WCI  17
LAMONI         CLOUDY    29  21  72 CALM      30.19R
RED OAK *      CLOUDY    30  27  86 NE7       30.19R WCI  23
SHENANDOAH *   CLOUDY    32  27  80 NE8       30.19S WCI  25
$$

IAZ047>049-059>061-072>074-084-290600-
   CENTRAL IOWA

CITY           SKY/WX    TMP DP  RH WIND       PRES   REMARKS
AMES           CLOUDY    26  21  81 NE7       30.23S WCI  18
ANKENY *       CLOUDY    27  25  93 NE3       30.24
CHARITON *     CLOUDY    28  25  86 CALM      30.20S
DES MOINES     CLOUDY    28  21  75 NE6       30.23R WCI  22
GRINNELL*      CLOUDY    28  23  80 E6        30.23R WCI  22
KNOXVILLE *    CLOUDY    28  21  74 E6        30.21R WCI  22
MARSHALLTOWN   CLOUDY    25  22  88 NE7       30.23R WCI  17
PELLA *        CLOUDY    30  22  72 E5        30.24R WCI  25
PERRY *        MOCLDY    27  23  86 N5        30.24R WCI  21
$$

IAZ004>006-015-016-023>025-035-036-290600-
   NORTH CENTRAL IOWA

CITY           SKY/WX    TMP DP  RH WIND       PRES   REMARKS
ALGONA *       CLOUDY    18  16  93 NE12      30.27R WCI   5
CLARION *      CLOUDY    19  18  93 NE10      30.26R WCI   8
ESTHERVILLE    CLOUDY    17  15  92 NE10      30.28R FOG     WCI   5
FORT DODGE *   CLOUDY    19  14  79 NE7       30.26R WCI  10
MASON CITY     CLOUDY    16  12  84 NE6       30.28R WCI   7
FOREST CITY *  CLOUDY    19  14  79 NE7       30.27R WCI  10
IOWA FALLS *   CLOUDY    21  18  86 NE7       30.26R WCI  13
$$

IAZ007>011-017>019-026>030-037>042-050>054-066-290600-
   NORTHEAST IOWA

CITY           SKY/WX    TMP DP  RH WIND       PRES   REMARKS
CEDAR RAPIDS   CLOUDY    27  19  72 NE7       30.23R WCI  19
CHARLES CITY * CLOUDY    19  16  86 NE10G17   30.27R WCI   8
CLINTON *      MOCLDY    21  18  86 N5        30.26F WCI  15
DECORAH *      CLEAR     19  14  79 NE7       30.25S WCI  10
DUBUQUE        CLOUDY    22  17  81 CALM      30.24R
MONTICELLO *   CLOUDY    23  23 100 CALM      30.25R
OELWEIN *      CLOUDY    23  19  86 NE8       30.25R WCI  14
WATERLOO       CLOUDY    23  19  85 NE8       30.26R WCI  14
$$

IAZ064-065-067-068-078-290600-
   EAST CENTRAL IOWA

CITY           SKY/WX    TMP DP  RH WIND       PRES   REMARKS
DAVENPORT      MOCLDY    24  18  77 NE5       30.24S WCI  18
IOWA CITY      CLOUDY    28  18  66 CALM      30.26R
MT. PLEASANT * PTCLDY    25  21  86 NE5       30.24R WCI  19
MUSCATINE *    CLEAR     25  19  80 CALM      30.26R
QUAD CITIES    MOCLDY    22  17  81 CALM      30.24S
$$

IAZ062-063-075>077-085>089-095>099-290600-
   SOUTHEAST IOWA

CITY           SKY/WX    TMP DP  RH WIND       PRES   REMARKS
BURLINGTON     PTCLDY    26  21  81 N3        30.24R
FAIRFIELD *    CLOUDY    27  18  69 NE6       30.23R WCI  20
FORT MADISON * CLEAR     28  19  69 CALM      30.23S
KEOKUK *       CLEAR     23  21  93 CALM      30.22F
OSKALOOSA *    CLOUDY    27  21  80 E5        30.23R WCI  21
CENTERVILLE *  CLEAR     28  23  80 CALM      30.21S
OTTUMWA        CLOUDY    29  20  69 E6        30.22R WCI  23
WASHINGTON *   CLEAR     25  23  93 NE5       30.24R WCI  19
$$

ABBREVIATIONS USED IN REMARKS
   TC - TEMPERATURES IN CELSIUS
  WCI - WIND CHILL INDEX
   HX - HEAT INDEX
  VSB - VISIBILITY
$$




USA.gov is the U.S. government's official web portal to all federal, state and local government web resources and services.